This demonstration page uses our WeatherBlox Daily Observations layout. Learn more.

Left ArrowRight Arrow

Hourly Observations for March 25, 2020

Temp ( °F °C ) Dew Point ( °F °C ) Humidity (%) Winds ( mph kmh ) Pressure ( in mb ) Visibility ( mi km ) Precip ( " mm )
12:53 am 00:53 Clear 41 5 38 3.3 89 89 NNE 3 6 30.03 1017 10 16 0.00 0.00
1:53 am 01:53 Clear 39 3.9 37 2.8 93 93 N 3 6 30.04 1017 10 16 0.00 0.00
2:53 am 02:53 Clear 37 2.8 35 1.7 93 93 NNE 3 6 30.03 1017 10 16 0.00 0.00
3:53 am 03:53 Mostly Cloudy 37 2.8 35 1.7 93 93 W 3 6 30.04 1017 10 16 0.00 0.00
4:53 am 04:53 Cloudy 38 3.3 35 1.7 89 89 N 6 9 30.03 1017 10 16 0.00 0.00
5:53 am 05:53 Cloudy 38 3.3 36 2.2 93 93 N 5 7 30.04 1017 10 16 0.00 0.00
6:53 am 06:53 Mostly Clear 37 2.8 35 1.7 93 93 Calm 30.05 1018 10 16 0.00 0.00
7:53 am 07:53 Sunny 38 3.3 35 1.7 89 89 N 3 6 30.07 1018 10 16 0.00 0.00
8:53 am 08:53 Sunny 42 5.6 37 2.8 82 82 Calm 30.08 1019 10 16 0.00 0.00
9:53 am 09:53 Mostly Sunny 46 7.8 39 3.9 77 77 Calm 30.09 1019 10 16 0.00 0.00
10:53 am 10:53 Mostly Sunny 49 9.4 38 3.3 66 66 NNW 5 7 30.09 1019 10 16 0.00 0.00
11:53 am 11:53 Mostly Sunny 52 11.1 37 2.8 57 57 ENE 3 6 30.07 1018 10 16 0.00 0.00
12:53 pm 12:53 Sunny 53 11.7 37 2.8 55 55 Calm 30.05 1018 10 16 0.00 0.00
1:53 pm 13:53 Sunny 53 11.7 34 1.1 48 48 undefined N/A 30.01 1016 10 16 0.00 0.00
2:53 pm 14:53 Partly Cloudy 55 12.8 35 1.7 47 47 SE 9 15 29.98 1015 10 16 0.00 0.00
3:53 pm 15:53 Sunny 56 13.3 34 1.1 44 44 SE 9 15 29.96 1014 10 16 0.00 0.00
4:53 pm 16:53 Mostly Cloudy 55 12.8 31 -0.6 40 40 Calm 29.94 1014 10 16 0.00 0.00
5:24 pm 17:24 Cloudy with Nearby Thunderstorms 49 9.4 34 1.1 56 56 N 21 33 29.95 1014 10 16 0.00 0.00
5:53 pm 17:53 Mostly Cloudy 48 8.9 34 1.1 58 58 NNW 14 22 29.96 1015 10 16 0.00 0.00
6:53 pm 18:53 Cloudy with Light Rain 44 6.7 37 2.8 76 76 W 17 28 29.97 1015 9 14 0.02 0.51
7:53 pm 19:53 Cloudy 46 7.8 36 2.2 68 68 NNE 8 13 30.00 1016 10 16 0.00 0.00
8:53 pm 20:53 Mostly Clear 45 7.2 38 3.3 77 77 Calm 30.01 1016 10 16 0.00 0.00
9:53 pm 21:53 Mostly Clear 44 6.7 38 3.3 79 79 NE 3 6 30.01 1016 10 16 0.00 0.00
10:53 pm 22:53 Clear 43 6.1 38 3.3 82 82 NNW 5 7 30.01 1016 10 16 0.00 0.00
11:53 pm 23:53 Mostly Clear 40 4.4 37 2.8 89 89 WNW 5 7 30.01 1016 10 16 0.00 0.00

Powered by AerisWeather